Regional Weather Roundup
Issued by NWS

Home | Current Version | Previous Version | Graphics & Text | Print | Product List | Glossary On
Versions: 1 2 3 4 5 6 7 8 9 10 11 12 13 14 15 16 17 18 19 20 21 22 23 24 25 26 27 28 29 30 31 32 33 34 35 36 37 38 39 40 41 42 43 44 45 46 47 48 49 50
659
ASUS43 KBIS 281810
RWRND

NORTH DAKOTA REGIONAL WEATHER ROUNDUP
NATIONAL WEATHER SERVICE BISMARCK ND
100 PM CDT SUN MAY 28 2017

NOTE: "FAIR" INDICATES FEW OR NO CLOUDS BELOW 12,000 FEET WITH NO
SIGNIFICANT WEATHER AND/OR OBSTRUCTIONS TO VISIBILITY.


NDZ001>003-009>011-017-281900-
NORTHWEST NORTH DAKOTA

CITY           SKY/WX    TMP DP  RH WIND       PRES   REMARKS
WILLISTON      PTSUNNY   71  36  27 N23G36    29.98R
6HR MIN TEMP:  51; 6HR MAX TEMP:  73;

MINOT          PTSUNNY   70  40  33 NW31G46   29.85F
MINOT AFB      MOSUNNY   65  42  41 NW36G45   29.83F
$$

NDZ018>021-031>035-040>046-281900-
SOUTHWEST NORTH DAKOTA

CITY           SKY/WX    TMP DP  RH WIND       PRES   REMARKS
BISMARCK       FAIR      73  41  31 NW18G26   29.90F
6HR MIN TEMP:  51; 6HR MAX TEMP:  73;

DICKINSON      FAIR      71  34  25 NW21G33   29.93F
GARRISON         N/A     70  39  32 NW38G51   29.87F
6HR MIN TEMP:  46; 6HR MAX TEMP:  70;

HETTINGER ARPT PTSUNNY   72  34  24 NW22G35   29.98F
$$

NDZ004>008-012>016-024-026-027-054-281900-
NORTHEAST NORTH DAKOTA

CITY           SKY/WX    TMP DP  RH WIND       PRES   REMARKS
GRAND FORKS    PTSUNNY   65  48  54 NW18G26   29.73F
GRND FRKS AFB  MOSUNNY   65  46  50 NW14G25   29.74F
DEVILS LAKE    PTSUNNY   67  42  40 NW22G32   29.76F
$$

NDZ022-023-025-028>030-036>039-047>053-281900-
SOUTHEAST NORTH DAKOTA

CITY           SKY/WX    TMP DP  RH WIND       PRES   REMARKS
FARGO          MOSUNNY   67  47  48 NW23G33   29.77R
6HR MIN TEMP:  51; 6HR MAX TEMP:  68;

JAMESTOWN      FAIR      66  40  38 NW25G36   29.82F
$$





USA.gov is the U.S. government's official web portal to all federal, state and local government web resources and services.